• MPC Preparation (Info)

  • MPEC 2014-S112: 2012 FZ23

    The following Minor Planet Electronic Circular may be linked-to from your own Web pages, but must not otherwise be redistributed electronically.

    A form allowing access to any MPEC is at the bottom of this page.


    Read MPEC 2014-S111 Read MPEC 2014-S113


    M.P.E.C. 2014-S112                               Issued 2014 Sept. 27, 18:03 UT
    
         The Minor Planet Electronic Circulars contain information on unusual
             minor planets and routine data on comets.  They are published
       on behalf of Commission 20 of the International Astronomical Union by the
              Minor Planet Center, Smithsonian Astrophysical Observatory,
                              Cambridge, MA 02138, U.S.A.
    
                 Prepared using the Tamkin Foundation Computer Network
    
                                  MPC@CFA.HARVARD.EDU
                URL https://www.minorplanetcenter.net/    ISSN 1523-6714
    
                                       2012 FZ23
    
                               Revision to MPEC 2012-F70
    
    Additional Observations:
         K12F23Z 2C2013 09 10.49158923 15 19.606+19 11 27.52         23.5 RtES112568
         K12F23Z 2C2013 09 10.50255023 15 18.912+19 11 18.87         23.4 RtES112568
         K12F23Z 2C2014 09 16.54063800 48 12.981-12 39 26.38         23.7 RtES112568
         K12F23Z 2C2014 09 16.54940700 48 12.487-12 39 34.06         23.7 RtES112568
         K12F23Z 2C2014 09 16.55816300 48 12.001-12 39 41.69         23.8 RtES112568
         K12F23Z 2C2014 09 16.56752800 48 11.461-12 39 49.95         23.6 RtES112568
         K12F23Z 2C2014 09 19.49401400 45 27.064-13 22 31.44         23.6 RtES112568
         K12F23Z 2C2014 09 19.50487800 45 26.439-13 22 40.88         23.7 RtES112568
    
    Observer details:
    568 Mauna Kea.  Observers D. J. Tholen, M. Micheli.  Measurer D. J. Tholen.
        2.24-m University of Hawaii reflector.
    
    Orbital elements:
    2012 FZ23                                           PHA, Earth MOID = 0.0195 AU
    Epoch 2014 Dec. 9.0 TT = JDT 2457000.5                  MPC
    M 247.63385              (2000.0)            P               Q
    n   0.25089205     Peri.  357.78578     -0.99908691     -0.04138989
    a   2.4896872      Node   179.37277     +0.03384017     -0.61526361
    e   0.6082924      Incl.   75.40554     -0.02608051     +0.78723412
    P   3.93           H   18.2           G   0.15           U   2
    Residuals in seconds of arc (radar residuals in s.d.)
    120323 E12  0.1-  0.6-    120326 E12  0.0-  0.2-    120329 H21  0.3+  0.4+
    120323 E12  0.0-  0.4-    120326 639  0.0-  0.7+    120329 H21  0.1+  0.4+
    120323 E12  0.1-  0.2-    120326 639  0.0-  0.5+    120329 H21  0.2+  0.5+
    120323 E12  0.0+  1.3-    120326 J95  0.0-  0.2+    120329 H21  0.0-  0.7+
    120323 E12  0.0-  0.1-    120326 J95  0.2+  0.1-    120329 H21  0.1+  0.5+
    120323 E12  0.3+  0.2-    120326 639  0.1-  0.7+    120329 H21  0.0+  0.4+
    120323 E12  0.1+  0.2-    120326 J95  0.4+  0.5+    120329 H21  0.4-  0.4+
    120323 E12  0.1-  0.3-    120326 J95  0.4+  0.0+    120329 H21  0.2+  0.5+
    120323 E12  0.0-  0.0+    120326 204  0.1-  0.2-    120330 E12  0.1+  0.2-
    120323 E12  0.1-  0.7-    120326 204  0.2-  0.1-    120331 H21  0.2-  0.2+
    120323 E12  0.1-  0.4-    120326 J69  0.0+  0.4-    120331 H21  0.0+  0.0-
    120323 E12  0.1+  0.2-    120326 204  0.2-  0.1+    120331 H21  0.1-  0.1+
    120323 E12  0.2-  0.2-    120326 204  0.1-  0.2+    120331 H21  0.2-  0.1+
    120323 E12  0.2+  0.2-    120326 J69  0.2+  0.0-    120331 291  0.1-  0.3+
    120323 E12  0.2-  0.1-    120326 J69  0.0+  0.3-    120331 291  0.6+  0.5+
    120323 E12  0.1+  0.5-    120326 251/251D 0.234-    120331 291  0.0+  0.0+
    120324 807  0.0-  0.0-    120326 251/251r 0.059+    120331 204  0.3+  0.3-
    120324 807  0.2+  0.5+    120327 H45  0.1+  0.6+    120331 204  0.1+  0.2-
    120324 807  0.1-  0.2+    120327 H45  0.4+  0.4+    120331 204  0.1+  0.1-
    120324 H36  0.2-  0.3-    120327 H45  0.3+  0.7+    120401 H21  0.0-  0.1-
    120324 H36  0.1-  0.4+    120327 H45  0.1-  0.5+    120401 H21  0.1-  0.1-
    120324 H36  0.0-  0.0-    120327 H45  0.3+  0.5+    120401 H21  0.1+  0.0+
    120324 H01  0.1-  0.1+    120327 H45  0.2+  0.4+    120401 H21  0.0-  0.2-
    120324 H01  0.3-  0.2-    120327 H45  0.1+  0.5+    120401 H21  0.0+  0.2-
    120324 G96  0.1+  0.2+    120327 H45  0.1-  0.3+    120401 H15  0.2-  0.1+
    120324 854  0.4-  0.6+    120327 H45  0.1+  0.5+    120401 H15  0.5-  0.7+
    120324 G96  0.0-  0.0-    120327 H45  0.0-  0.3+    120401 H15  0.2-  0.2+
    120324 854  0.1-  0.4+    120327 H45  0.0+  0.5+    120401 H15  0.5-  0.1-
    120324 854  0.0-  0.0+    120327 H45  0.2-  0.4+    120401 H15  0.2-  0.1-
    120324 854  0.3-  0.2+    120327 H45  0.2-  0.4+    120401 H15  0.6-  0.3+
    120324 854  0.2-  0.3+    120327 H45  0.0-  0.4+    120401 H15  0.9+  0.2-
    120324 H01  0.1-  0.6-    120327 H45  0.1-  0.5+    120402 H21  0.2-  0.1-
    120324 H01  0.1-  0.1-    120327 H21  0.3+  0.0-    120402 H21  0.1-  0.1-
    120324 E12  0.3-  0.2-    120327 G48  0.1+  0.2-    120402 H21  0.1+  0.0-
    120324 E12  0.0+  0.0-    120327 G48  0.1+  0.8-    120402 H21  0.2+  0.1-
    120324 E12  0.1-  0.3-    120327 H21  0.0-  0.1-    120402 H21  0.1+  0.1-
    120325 E12  0.0-  0.3-    120327 G48  0.3+  0.9-    120402 H15  0.3+  0.4+
    120325 E12  0.0-  0.3-    120327 G48  0.1+  0.7-    120402 H15  0.4-  0.8+
    120325 E12  0.1-  0.3-    120327 G48  0.3+  0.7-    120402 H15  0.1+  0.3+
    120325 E12  0.1+  0.1+    120327 G48  0.4+  0.4-    120402 H15  0.2-  0.0-
    120325 E12  0.1+  0.3-    120327 G48  0.1-  0.3-    120403 H21  0.2-  0.0+
    120325 E12  0.0+  0.2-    120327 H21  0.0+  0.3-    120403 H21  0.0-  0.1-
    120325 E12  0.3+  0.2-    120327 H21  0.0+  0.1-    120403 H21  0.1-  0.2+
    120325 E12  0.2-  0.4-    120327 H15  0.1-  1.0-    120403 H21  0.1+  0.0+
    120325 A27  1.7+  0.6-    120327 H15  0.3-  1.2-    120403 H21  0.2+  0.0-
    120325 A27  0.2-  0.3+    120327 H15  0.1-  1.0-    120403 H15  0.2-  0.1-
    120325 A27  1.1+  0.5-    120327 H15  0.2-  1.2-    120403 H15  0.3-  0.5+
    120325 A27  0.1+  0.7-    120327 H15  0.3-  1.1-    120405 B88  0.1-  0.7+
    120325 807  0.2-  0.3-    120327 H15  0.0-  0.9-    120405 B88  0.3-  1.4+
    120325 807  0.2-  0.6-    120328 H21  0.1-  0.3-    120405 B88  0.5+  1.0+
    120325 807  0.2-  0.6-    120328 H21  0.0-  0.3-    120407 H21  0.1-  0.3-
    120326 807  0.1-  0.2-    120328 H21  0.0+  0.2-    120407 H21  0.1-  0.1-
    120326 807  0.2-  0.4-    120328 H21  0.1-  0.2-    120407 H21  0.2-  0.1+
    120326 807  0.3-  0.1-    120328 H21  0.1-  0.3-    120411 204  0.1-  0.1+
    120326 H21  0.1+  0.0-    120328 H21  0.2-  0.2-    120411 204  0.0-  0.0-
    120326 H21  0.0+  0.1-    120328 H15 (0.6-  5.3-)   120411 204  0.0-  0.1-
    120326 H21  0.0+  0.1-    120328 H15 (0.6-  5.6-)   120412 H21  0.2-  0.1+
    120326 H21  0.0+  0.2-    120328 H15 (0.7-  5.7-)   120412 H21  0.1+  0.0+
    120326 H21  0.0+  0.2-    120328 291  0.1+  0.0+    120412 H21  0.1+  0.2-
    120326 H21  0.1-  0.0-    120328 291  0.1+  0.0-    120412 H21  0.2+  0.0-
    120326 H45  0.2-  0.4+    120328 291  0.2-  0.1+    120412 H21  0.0+  0.1-
    120326 H45  0.2-  0.6+    120328 H15 (0.0-  5.8-)   120412 H21  0.1+  0.2-
    120326 H45  0.0+  0.6+    120328 G48  0.6+  0.2-    120412 H21  0.2-  0.1+
    120326 H45  0.0-  0.6+    120328 G48  1.1+  0.3+    120417 H21  0.0-  0.0+
    120326 H45  0.3+  0.8+    120328 H15 (0.4-  5.0-)   120417 H21  0.1-  0.2+
    120326 H45  0.1-  0.4+    120328 G48  0.0-  0.4+    120417 H21  0.1+  0.1+
    120326 H45  0.1-  0.8+    120328 G48  0.0-  0.9+    120418 H21  0.0+  0.2-
    120326 H45  0.1+  0.5+    120328 G48  0.2-  0.6+    120418 H21  0.1+  0.1+
    120326 H45  0.1+  0.7+    120328 H15 (0.7-  5.6-)   120418 H21  0.2-  0.0-
    120326 H45  0.4+  1.0+    120328 H15 (0.3-  5.2-)   120721 H21  0.3+  0.7-
    120326 H45  0.2-  0.3+    120328 H15 (0.8-  5.4-)   120721 H21  0.1-  0.2-
    120326 H45  0.4-  0.3+    120328 H15 (0.8-  5.4-)   120721 H21  0.5+  0.4-
    120326 H45  0.2-  0.1-    120328 B03  0.4+  0.1-    130910 568  0.0+  0.0+
    120326 H45  0.1-  0.4+    120328 B03  0.0+  0.3-    130910 568  0.0-  0.1-
    120326 H45  0.3-  0.1+    120328 B03  0.1-  0.2-    140916 568  0.0+  0.0-
    120326 H45  0.1-  0.1-    120328 B03  0.1-  0.1-    140916 568  0.0+  0.0-
    120326 H15  0.0-  0.7+    120328 B03  0.3-  0.3+    140916 568  0.1+  0.0-
    120326 H15  0.2+  0.2+    120328 B03  0.3-  0.3-    140916 568  0.1-  0.1-
    120326 H15  0.0+  0.1+    120328 B03  0.0-  0.1-    140919 568  0.0-  0.1-
    120326 E12  0.1-  0.4-    120328 B03  0.1-  0.3-    140919 568  0.1+  0.0-
    120326 E12  0.2-  0.3-    120328 B03  0.1-  0.4-
    
    Ephemeris:
    2012 FZ23                a,e,i = 2.49, 0.61, 75                  q = 0.9752
    Date    TT    R. A. (2000) Decl.     Delta      r     Elong.  Phase     V
    2014 08 28    01 03 17.0 -08 00 01   3.0096  3.8470   140.9     9.5    24.1
    ...
    2014 09 12    00 52 15.3 -11 32 57   2.8759  3.8172   155.9     6.2    23.9
    ...
    2014 09 20    00 44 58.1 -13 29 50   2.8347  3.8001   161.4     4.8    23.8
    ...
    2014 09 26    00 39 03.1 -14 55 47   2.8186  3.7868   162.4     4.6    23.7
    2014 09 27    00 38 02.3 -15 09 49   2.8172  3.7846   162.3     4.6    23.7
    2014 09 28    00 37 01.2 -15 23 45   2.8162  3.7823   162.1     4.7    23.7
    ...
    2014 10 04    00 30 49.9 -16 44 39   2.8173  3.7684   159.0     5.5    23.8
    ...
    2014 10 12    00 22 34.6 -18 23 32   2.8381  3.7493   152.1     7.2    23.9
    ...
    2014 10 27    00 08 17.1 -20 52 53   2.9311  3.7112   136.0    10.7    24.1
    
    Gareth V. Williams           (C) Copyright 2014 MPC           M.P.E.C. 2014-S112
    

    Read MPEC 2014-S111 Read MPEC 2014-S113


    MPEC number:

    Enter an MPEC number in one of the following forms:

    • 1997-B01 (the full form)
    • J97B01 (the packed version of the full form)
    • B01 (the abbreviated form)